Location: St Andrew
(49.4460°N, 2.5750°W)
Time: 22:15:02
(UTC+01:00)

Daily predictions for brighter satellites

Satellite Brightness Start Highest point End
(mag) Time Altitude Azimuth Time Altitude Azimuth Time Altitude Azimuth
Cosmos 614 Rocket 4.1 20:47:55 10° NNW 20:52:59 61° ENE 20:58:03 10° SE
Cosmos 839 Rocket 4.4 20:47:37 10° S 20:53:17 38° ESE 20:59:02 10° NE
ATLAS 3B R/B 3.6 20:47:04 10° NW 20:53:27 38° NNE 20:59:34 10° E
H-2A R/B 3.7 20:50:50 10° E 20:54:08 18° ENE 20:57:24 10° NNE
Meteor 1-13 Rocket 4.5 20:52:10 10° N 20:58:05 62° ENE 21:03:58 10° SSE
Cosmos 1441 Rocket 4.4 20:57:21 10° NNW 21:00:55 43° W 21:04:28 10° SSW
Okean 2 Rocket 3.1 20:58:45 10° S 21:03:15 84° E 21:07:48 10° N
SPOT 5 4.2 21:00:45 10° ESE 21:04:33 23° ENE 21:08:12 10° N
USA 186 3.0 21:02:19 10° S 21:05:32 47° W 21:08:51 10° NNW
EXPRESS MD2 4.3 21:05:43 10° S 21:08:09 23° SE 21:11:54 10° E
Atlas Centaur 2 4.3 21:05:03 10° SSW 21:09:17 16° S 21:13:09 10° SE
Envisat 3.4 21:05:22 10° S 21:10:25 70° WSW 21:15:31 10° NNW
ERS-1 Rocket 3.5 21:06:44 10° SE 21:11:28 43° ENE 21:16:12 10° N
Meteor 2-4 Rocket 3.9 21:06:24 10° N 21:11:48 56° ENE 21:17:20 10° SSE
S3M 4.0 21:05:36 10° N 21:11:52 78° E 21:18:10 10° SSE
Cosmos 2360 Rocket 3.9 21:09:34 10° ESE 21:12:07 13° E 21:14:40 10° ENE
Cosmos 1980 Rocket 2.2 21:06:48 10° SSW 21:12:25 80° ESE 21:18:02 10° NNE
Meteor 1-29 4.0 21:12:45 10° NE 21:15:42 26° E 21:18:37 10° SSE
Cosmos 1553 Rocket 4.0 21:09:31 10° N 21:15:46 88° ENE 21:21:54 10° S
Cosmos 2056 Rocket 4.1 21:12:10 10° SW 21:17:15 61° WNW 21:22:27 10° NNE
Helios 1A 3.0 21:13:12 10° SSE 21:17:27 76° ENE 21:21:43 10° NNW
BREEZE-M DEB (TANK) 2.7 21:19:46 10° SSW 21:22:05 21° SSE 21:23:00 16° ESE
ATLAS 2AS CENTAUR R/B 3.8 21:20:19 10° SSE 21:26:39 29° ESE 21:33:15 10° NE
ERBS 2.8 21:25:19 10° SSW 21:28:35 40° SE 21:31:51 10° ENE
Cosmos 2266 Rocket 4.2 21:22:54 10° SSE 21:28:39 49° E 21:34:27 10° NNE
NOAA 11 4.3 21:23:35 10° SSE 21:29:01 67° ENE 21:34:30 10° N
Cosmos 1697 Rocket 3.7 21:23:34 10° SW 21:29:03 53° NW 21:34:36 10° NNE
Cosmos 44 4.2 21:25:50 10° NW 21:29:57 40° WSW 21:34:11 10° S
NOSS 3-1 (A) 3.5 21:26:53 10° SW 21:32:47 89° WNW 21:39:34 10° NE
Cosmos 1607 4.1 21:26:46 10° NW 21:33:14 71° NE 21:38:43 15° SE
Meteor 1-11 Rocket 3.7 21:33:59 10° S 21:39:50 76° E 21:45:35 10° NNE
Cosmos 1850 Rocket 4.1 21:34:51 10° NNW 21:40:14 86° WSW 21:45:12 12° SSE
Cosmos 1452 Rocket 3.6 21:35:56 10° SSW 21:41:14 86° WNW 21:46:34 10° NNE
YAOGAN 6 3.3 21:38:33 10° S 21:42:01 51° W 21:45:29 10° NNW
Cosmos 1633 4.3 21:40:16 10° SW 21:43:37 36° WNW 21:47:02 10° N
Resurs 01 Rocket 4.1 21:41:29 10° SW 21:44:53 21° W 21:48:17 10° NW
CENTAUR R/B 4.5 21:39:40 10° NW 21:45:51 29° NNE 21:52:38 10° ENE
Cosmos 1420 Rocket 3.9 21:41:29 10° SSW 21:46:39 77° ESE 21:51:52 10° NNE
Okean 1-7 Rocket 3.9 21:43:05 10° N 21:47:27 49° ENE 21:50:28 19° SE
Okean 1 Rocket 3.1 21:50:01 11° S 21:54:10 57° E 21:58:28 10° NNE
SPOT 1/Viking Rocket 4.0 21:51:14 19° SE 21:54:45 48° ENE 21:59:46 10° N
Cosmos 1300 Rocket 3.6 21:59:08 10° SSW 22:03:26 80° W 22:07:47 10° N
NOSS 3-1 (C) 4.4 21:57:39 10° WSW 22:03:31 53° NW 22:10:13 10° NE
Meteor 1-23 Rocket 4.3 22:01:07 10° NNW 22:06:42 76° W 22:11:39 13° S
Cosmos 1975 4.1 22:06:49 23° E 22:07:17 23° E 22:10:29 10° NE
MetOp-A 4.3 22:02:47 14° S 22:07:28 76° WSW 22:12:51 10° NNW
Terra 2.8 22:05:41 21° ESE 22:07:53 32° ENE 22:12:04 10° N
USA 215 4.2 22:03:38 10° ENE 22:09:50 47° N 22:16:02 10° WNW
BREEZE-M (TANK) 4.2 21:51:36 10° W 22:10:13 85° SSW 22:13:25 22° ESE
NOSS 2-3 (C) 4.1 22:05:49 10° SSW 22:10:27 52° ESE 22:15:56 10° NE
Cosmos 1025 Rocket 2.9 22:08:13 10° N 22:12:32 90° W 22:15:07 23° S
Cosmos 2278 Rocket 3.9 22:08:28 10° N 22:12:49 22° NE 22:16:39 12° E
Helios 1B rocket 3.2 22:12:42 10° N 22:16:43 52° WNW 22:20:41 10° SSW
SeaSat 1 3.9 22:12:37 10° NNE 22:17:13 40° NW 22:21:47 10° WSW
Abrixas rocket 2.1 22:14:31 10° W 22:17:48 74° S 22:18:47 41° E
BREEZE-M DEB 3.4 22:08:24 10° W 22:18:09 79° SSW 22:19:49 31° ESE
USA 245 3.9 22:14:52 19° S 22:18:47 82° WSW 22:23:15 10° NNW
Cosmos 2263 Rocket 2.7 22:13:18 10° NW 22:18:52 56° WSW 22:22:55 18° S
USA 238 DEB 3.8 22:11:54 10° NW 22:19:01 75° NE 22:23:31 25° SE
USA 238 3.8 22:12:00 10° NW 22:19:07 75° NE 22:23:37 25° SE
NOSS 3-2 (A) 4.4 22:12:23 10° NW 22:19:25 53° NE 22:25:03 19° ESE
Cosmos 2322 Rocket 2.2 22:13:57 10° SSW 22:19:40 87° WNW 22:25:25 10° NNE
Cosmos 220 Rocket 4.3 22:18:08 10° NNW 22:22:22 63° WSW 22:24:39 26° S
ARGOS 3.3 22:18:36 18° S 22:22:39 70° WSW 22:28:02 10° NNW
Tiangong 1 3.1 22:20:44 10° SW 22:21:37 15° SW 22:21:37 15° SW
Cosmos 1238 Rocket 4.2 22:18:59 10° N 22:25:43 69° ENE 22:29:42 26° SSE
H-2A R/B 3.4 22:24:56 22° E 22:26:10 25° ENE 22:29:47 10° N
SL-08 RB Rocket 3.8 22:25:01 24° S 22:27:45 73° WSW 22:32:19 10° NNW
Cosmos 1844 Rocket 3.2 22:22:23 10° NNW 22:27:55 49° NE 22:30:40 28° ESE
Cosmos 1743 4.3 22:29:13 21° ENE 22:29:13 21° ENE 22:31:41 10° NE
SL-16 R/B 2.4 22:23:07 10° SSW 22:28:48 77° WNW 22:34:30 10° NNE
Cosmos 1536 4.0 22:25:54 10° SSW 22:29:47 42° WNW 22:33:41 10° N
Lacrosse 5 rocket 3.8 22:31:17 10° WSW 22:31:25 10° SW 22:31:34 10° SW
SL-8 R/B 3.6 22:28:06 10° W 22:32:54 71° SSW 22:34:50 35° ESE
H-2A R/B 2.0 22:30:04 26° S 22:32:59 82° WSW 22:38:01 10° NNW
BREEZE-M DEB (TANK) 3.7 22:29:22 10° WSW 22:33:20 70° SSE 22:48:31 10° ENE
Cosmos 2322 3.9 22:32:58 27° SSE 22:35:43 47° ESE 22:41:08 10° NE
Nadezhda 1 Rocket 4.3 22:36:02 10° N 22:42:11 55° ENE 22:44:54 33° SE
COSMOS 2428 3.5 22:41:44 31° ESE 22:42:12 31° ESE 22:47:10 10° NE
SPOT 5 3.4 22:39:23 23° S 22:42:19 56° WSW 22:46:59 10° NNW
Cosmos 2219 Rocket 3.7 22:44:06 19° E 22:44:06 19° E 22:47:23 10° NE
Cosmos 1892 Rocket 3.5 22:39:26 10° N 22:43:55 87° E 22:45:22 42° SSE
Cosmos 1626 Rocket 4.3 22:40:33 10° N 22:44:32 34° ENE 22:45:08 33° E
ATLAS 3B R/B 2.6 22:37:57 10° NW 22:44:45 76° SW 22:47:57 33° SSE
Cosmos 1244 Rocket 4.4 22:40:46 20° S 22:45:13 85° E 22:51:24 10° N
GP-B 3.7 22:45:31 10° NNE 22:49:43 39° E 22:50:08 38° E
NOSS 2-3 (D) 3.9 22:45:14 10° SW 22:50:04 89° NW 22:55:54 10° NE
Lacrosse 5 2.0 22:50:01 34° S 22:51:37 46° SE 22:56:28 10° ENE
Cosmos 1844 4.0 22:46:59 10° NNW 22:52:36 58° ENE 22:54:45 36° ESE
Cosmos 2360 Rocket 2.1 22:50:43 17° SSW 22:55:09 77° ESE 23:00:48 10° NNE
NOSS 3-2 (C) 4.2 22:48:35 10° NW 22:55:48 63° NE 23:00:21 27° ESE
ARGOS Delta rocket 4.3 22:51:39 10° NNE 22:55:50 37° E 22:55:54 37° E
Cosmos 2333 Rocket 3.7 22:57:21 20° E 22:57:21 20° E 23:00:28 10° NE
Atlas Centaur 2 4.4 22:54:41 10° SW 22:56:32 12° SSW 22:56:32 12° SSW
Molniya-1 4.2 23:01:02 10° NW 23:03:08 56° NW 23:03:08 56° NW
Cosmos 1486 Rocket 4.0 22:59:20 10° NNW 23:04:36 77° WSW 23:06:13 45° S
Cosmos 1544 Rocket 3.5 23:03:40 55° S 23:04:36 81° E 23:09:06 10° NNE
ERBS 3.7 23:01:57 10° W 23:05:15 40° NNW 23:08:35 10° NE
DMSP B5D2-2 4.0 23:01:45 10° NNE 23:07:02 86° ESE 23:09:15 36° SSW
Cosmos 1437 Rocket 3.3 23:08:02 46° ENE 23:08:02 46° ENE 23:11:27 10° NNE
Cosmos 724 4.3 23:03:50 10° NW 23:09:47 70° NE 23:11:46 42° ESE
SL-08 R/B 4.4 23:06:48 32° S 23:10:00 86° E 23:16:22 10° N
Cosmos 1302 Rocket 3.9 23:09:46 48° S 23:11:06 67° ESE 23:16:22 10° NNE
Cosmos 1500 4.0 23:11:28 36° SW 23:12:39 50° WNW 23:16:27 10° N
Cosmos 405 3.3 23:14:30 61° W 23:14:41 62° WNW 23:18:16 10° N
ATLAS 2AS CENTAUR R/B 3.1 23:09:01 10° SW 23:16:53 86° NW 23:25:06 10° NE
Cosmos 1455 Rocket 3.0 23:16:52 61° SSW 23:17:38 86° WNW 23:22:08 10° N
Cosmos 1110 Rocket 4.4 23:14:59 15° SW 23:19:15 60° WNW 23:24:25 10° NNE
Meteor 1-21 4.1 23:15:59 10° N 23:21:37 80° ENE 23:23:02 52° SSE
Meteor 1-12 Rocket 4.2 23:19:52 35° SSW 23:22:21 80° WNW 23:28:01 10° N
CZ-2C R/B 3.8 23:22:16 32° E 23:22:55 33° ENE 23:27:12 10° N
BREEZE M DEB (TANK) 3.0 23:18:12 10° W 23:22:35 56° W 23:22:35 56° W
Cosmos 2237 Rocket 3.7 23:24:44 21° E 23:24:44 21° E 23:27:54 10° NE
EXPRESS MD2 4.0 23:21:26 10° W 23:25:22 90° WSW 23:33:50 10° E
NOSS 3-4 (A) 4.4 23:28:17 30° E 23:28:17 30° E 23:32:51 10° NE
NOSS 3-4 (C) 4.4 23:28:26 29° E 23:28:26 29° E 23:32:57 10° NE
Cosmos 968 Rocket 4.2 23:26:45 10° NNW 23:31:38 41° ENE 23:32:34 38° E
ALOS 2 4.0 23:35:22 27° ENE 23:35:33 27° ENE 23:39:16 10° N
Cosmos 1818 3.9 23:37:32 48° E 23:37:32 48° E 23:42:11 10° NE
BREEZE-M DEB (TANK) 3.9 23:19:23 10° WSW 23:37:30 73° SSE 23:40:44 23° E
CENTAUR R/B 3.6 23:30:51 10° NW 23:38:15 54° NE 23:43:18 24° ESE
Cosmos 1354 Rocket 4.0 23:33:19 10° NNW 23:38:40 75° WSW 23:39:30 61° S
Cosmos 1745 Rocket 4.1 23:36:38 37° SSW 23:39:13 73° WNW 23:45:24 10° N
Cosmos 1842 3.5 23:36:46 10° N 23:40:13 67° N 23:40:13 67° N
COSMOS 2455 4.0 23:37:52 10° NNW 23:43:23 35° NE 23:46:19 23° E
Cosmos 1975 4.2 23:42:36 28° WSW 23:43:38 33° WNW 23:47:18 10° N
USA 81 3.9 23:38:33 10° N 23:43:52 77° E 23:44:29 67° SE
Terra 2.8 23:44:34 34° SW 23:45:32 37° W 23:49:59 10° NNW
SL-24 R/B 4.3 23:43:10 10° N 23:48:11 69° E 23:48:17 69° ESE
ATLAS CENTAUR R/B 3.3 23:46:23 10° NNW 23:49:07 19° NNE 23:49:56 18° NE
USA 215 3.5 23:48:32 26° E 23:52:22 67° NNE 23:58:52 10° WNW
